Location: Lecco
(45.8566°N, 9.3977°E)
Time: 09:54:48
(UTC+02:00)

S-56A Canister/Altair - Pass Details

Date: 31 July 2019
Orbit: 633 x 2499 km, 38.9° (Epoch: 21 August)

Event Time Altitude Azimuth Distance (km) Brightness Sun altitude
Rises 04:23:35 0° 214° (SSW) 3,809 - -14.6°
Reaches altitude 10° 04:26:14 10° 203° (SSW) 3,082 - -14.3°
Exits shadow 04:27:18 15° 197° (SSW) 2,835 9.9 -14.2°
Maximum altitude 04:32:58 32° 144° (SE) 2,368 9.9 -13.5°
Drops below altitude 10° 04:42:21 10° 88° (E) 4,371 12.1 -12.3°
Sets 04:46:54 0° 80° (E) 5,650 13.0 -11.7°
